Location: Asheville, NC
(35.6000°N, 82.5500°W)
Time: 11:02:45
(UTC-04:00)

Vanguard 1 - Pass Details

Date: 13 February 2018
Orbit: 650 x 3833 km, 34.3° (Epoch: 24 May)

Event Time Altitude Azimuth Distance (km) Brightness Sun altitude
Rises 13:50:57 0° 201° (SSW) 6,635 15.2 38.7°
Reaches altitude 10° 13:58:19 10° 184° (S) 4,888 14.7 38.2°
Maximum altitude 14:04:57 16° 153° (SSE) 3,681 13.7 37.6°
Drops below altitude 10° 14:09:59 10° 119° (ESE) 3,531 13.0 37.2°
Sets 14:13:50 0° 97° (E) 4,041 13.1 36.8°
